Regional Weather Roundup
Issued by NWS Little Rock, AR

Home | Current Version | Previous Version | Graphics & Text | Print | Product List | Glossary On
Versions: 1 2 3 4 5 6 7 8 9 10 11 12 13 14 15 16 17 18 19 20 21 22 23 24 25 26 27 28 29 30 31 32 33 34 35 36 37 38 39 40 41 42 43 44 45 46 47 48 49
000
ASUS44 KLZK 271705
RWRLZK

WEATHER ROUNDUP FOR ARKANSAS
NATIONAL WEATHER SERVICE LITTLE ROCK AR
1100 AM CST TUE JAN 27 2015

NOTE: "FAIR" INDICATES FEW OR NO CLOUDS BELOW 12,000 FEET WITH NO
SIGNIFICANT WEATHER AND/OR OBSTRUCTIONS TO VISIBILITY.

ARZ001-003-010-029-271800-
NORTHWEST ARKANSAS

CITY           SKY/WX    TMP DP  RH WIND       PRES   REMARKS
FAYETTEVILLE   SUNNY     55  30  38 CALM      30.19R
FORT SMITH     SUNNY     60  35  39 CALM      30.17S
HARRISON       SUNNY     52  33  48 VRB6      30.17R
BENTONVILLE    SUNNY     54  32  43 CALM      30.19R
ROGERS         SUNNY     54  33  45 CALM      30.19R
HIGHFILL       SUNNY     54  34  46 CALM      30.18R
SPRINGDALE     SUNNY     54  34  47 E3        30.20R
$$

ARZ004-005-016-271800-
NORTH CENTRAL ARKANSAS

CITY           SKY/WX    TMP DP  RH WIND       PRES   REMARKS
BATESVILLE     SUNNY     54  36  50 NE6       30.17S
FLIPPIN        SUNNY     52  34  50 NE3       30.17S
MTN HOME       SUNNY     50  35  56 VRB3      30.16S
$$

ARZ040-041-271800-
WEST CENTRAL ARKANSAS

CITY           SKY/WX    TMP DP  RH WIND       PRES   REMARKS
MENA           SUNNY     66  34  30 E3        30.17S
MOUNT IDA      SUNNY     64  36  35 CALM      30.14R
$$

ARZ009-017-025-026-028-271800-
NORTHEAST ARKANSAS

CITY           SKY/WX    TMP DP  RH WIND       PRES   REMARKS
JONESBORO      SUNNY     50  38  63 N9        30.17R
NEWPORT        SUNNY     51  36  56 N10       30.19R
WALNUT RIDGE   SUNNY     48  36  61 N8        30.18R
BLYTHEVILLE    SUNNY     49  38  65 N16       30.16R
NW BLYTHEVILLE MOSUNNY   48  37  66 N12G21    30.16
$$

ARZ022-023-033-042-044-271800-
CENTRAL ARKANSAS

CITY           SKY/WX    TMP DP  RH WIND       PRES   REMARKS
LITTLE ROCK    SUNNY     61  33  35 VRB7      30.17R
N LITTLE ROCK  SUNNY     59  38  45 N8G16     30.17R
JACKSONVILLE   SUNNY     57  35  44 N3        30.16S
SEARCY         SUNNY     55  37  50 N5        30.18R
HOT SPRINGS    SUNNY     63  39  41 VRB3      30.16S
RUSSELLVILLE   SUNNY     58  35  42 W6        30.17R
CLINTON        FAIR      59  34  38 N3        30.17S
$$

ARZ036-271800-
EAST ARKANSAS

CITY           SKY/WX    TMP DP  RH WIND       PRES   REMARKS
WEST MEMPHIS   SUNNY     51  39  63 NE14      30.16R
$$

ARZ050-053-066-070-073-271800-
SOUTHWEST ARKANSAS

CITY           SKY/WX    TMP DP  RH WIND       PRES   REMARKS
ARKADELPHIA    FAIR      63  39  41 NE7       30.17S
CAMDEN         SUNNY     63  37  39 MISG      30.17S
TEXARKANA      SUNNY     65  39  38 VRB3      30.17R
EL DORADO      SUNNY     63  37  38 NE9       30.17R
DE QUEEN       SUNNY     65  38  36 CALM      30.16R
$$

ARZ056-057-069-271800-
SOUTHEAST ARKANSAS

CITY           SKY/WX    TMP DP  RH WIND       PRES   REMARKS
PINE BLUFF     SUNNY     58  37  45 N16       30.17R
STUTTGART      SUNNY     55  37  50 NE14      30.18R
MONTICELLO     SUNNY     61  34  36 N8        30.16R

$$




USA.gov is the U.S. government's official web portal to all federal, state and local government web resources and services.